Weather History for Vienna Schwechat, Austria

Change the Weather History Date:

Wednesday, February 20, 2013

  Actual Average Record
Temperature  
Mean Temperature 32 °F -  
Max Temperature 36 °F 45 °F 54 °F (2014)
Min Temperature 28 °F 31 °F 19 °F (2011)
Degree Days  
Heating Degree Days 33    
Moisture  
Dew Point 24 °F    
Average Humidity 68    
Maximum Humidity 81    
Minimum Humidity 50    
Precipitation  
Precipitation 0.01 in - - ()
Sea Level Pressure  
Sea Level Pressure 30.01 in    
Wind  
Wind Speed 12 mph ()    
Max Wind Speed 20 mph    
Max Gust Speed -    
Visibility 6.7 miles    
Events Rain , Snow    
Averages and records for this station are not official NWS values.
T = Trace of Precipitation, MM = Missing Value Source: Averaged Metar Reports

Daily Weather History Graph

Daily Weather History Graph

Search for Another Location

Airport:

Trip Planner

Search our weather history database for the weather conditions in past years. The results will help you decide how hot, cold, wet, or windy it might be!

Date:

Astronomy

Feb. 20, 2013 Rise Set
Actual Time 6:51 AM CET 5:23 PM CET
Civil Twilight 6:19 AM CET 5:55 PM CET
Nautical Twilight 5:43 AM CET 6:31 PM CET
Astronomical Twilight 5:07 AM CET 7:07 PM CET
Moon 12:16 PM CET (2/20) 3:12 AM CET (2/20)
Length of Visible Light 11h 35m
Length of Day
10h 32m
Waxing Gibbous, 74% of the Moon is Illuminated
Feb 20
Waxing Gibbous
Feb 25
Full
Mar 4
Last Quarter
Mar 11
New
Mar 19
First Quarter

Hourly Weather History & Observations

Time (CET) Temp. Windchill Dew Point Humidity Pressure Visibility Wind Dir Wind Speed Gust Speed Precip Events Conditions
12:20 AM 35.6 °F 28.0 °F 28.4 °F 75% 29.89 in 6.2 mi NW 10.4 mph - N/A Rain , Snow Light Rain
1:00 AM 35 °F - 27 °F 61% 29.93 in 19 mi NW 13.4 mph - -   Light Ice Pellets
1:20 AM 33.8 °F 23.9 °F 26.6 °F 75% 29.89 in 6.2 mi NW 15.0 mph - N/A   Mostly Cloudy
1:50 AM 33.8 °F 23.5 °F 26.6 °F 75% 29.89 in 6.2 mi NW 16.1 mph - N/A   Mostly Cloudy
2:20 AM 33.8 °F 24.8 °F 26.6 °F 75% 29.92 in 6.2 mi NW 12.7 mph - N/A   Mostly Cloudy
2:50 AM 33.8 °F 26.4 °F 26.6 °F 75% 29.92 in 6.2 mi NW 9.2 mph - N/A   Mostly Cloudy
3:20 AM 33.8 °F 25.8 °F 26.6 °F 75% 29.92 in 6.2 mi NW 10.4 mph - N/A   Mostly Cloudy
3:50 AM 33.8 °F 25.3 °F 24.8 °F 70% 29.92 in 6.2 mi NW 11.5 mph - N/A   Mostly Cloudy
4:00 AM 33 °F - 25 °F 62% 29.96 in 28 mi NW 11.2 mph - -   Overcast
4:20 AM 33.8 °F 26.4 °F 24.8 °F 70% 29.92 in 6.2 mi NW 9.2 mph - N/A   Mostly Cloudy
4:50 AM 33.8 °F 24.8 °F 24.8 °F 70% 29.95 in 6.2 mi WNW 12.7 mph - N/A   Mostly Cloudy
5:20 AM 33.8 °F 27.0 °F 24.8 °F 70% 29.95 in 6.2 mi WNW 8.1 mph - N/A   Mostly Cloudy
5:50 AM 33.8 °F 25.8 °F 24.8 °F 70% 29.95 in 6.2 mi WNW 10.4 mph - N/A   Mostly Cloudy
6:20 AM 33.8 °F 24.3 °F 23.0 °F 65% 29.95 in 6.2 mi NW 13.8 mph - N/A   Mostly Cloudy
6:50 AM 32.0 °F 22.1 °F 23.0 °F 69% 29.95 in 6.2 mi WNW 13.8 mph - N/A   Mostly Cloudy
7:00 AM 33 °F - 23 °F 54% 30.00 in 28 mi WNW 13.4 mph - -   Overcast
7:20 AM 32.0 °F 22.5 °F 23.0 °F 69% 29.95 in 6.2 mi WNW 12.7 mph - N/A   Mostly Cloudy
7:50 AM 32.0 °F 21.6 °F 24.8 °F 75% 29.98 in 6.2 mi WNW 15.0 mph - N/A   Mostly Cloudy
8:20 AM 33.8 °F 23.2 °F 24.8 °F 70% 29.98 in 6.2 mi WNW 17.3 mph - N/A   Mostly Cloudy
8:50 AM 33.8 °F 23.5 °F 24.8 °F 70% 29.98 in 6.2 mi WNW 16.1 mph - N/A   Mostly Cloudy
9:20 AM 33.8 °F 23.5 °F 24.8 °F 70% 29.98 in 6.2 mi NW 16.1 mph - N/A   Mostly Cloudy
9:50 AM 33.8 °F 23.5 °F 24.8 °F 70% 30.01 in 6.2 mi NW 16.1 mph - N/A   Mostly Cloudy
10:00 AM 33 °F - 24 °F 60% 30.04 in 12 mi NW 15.7 mph - -   Overcast
10:20 AM 33.8 °F 23.9 °F 24.8 °F 70% 30.01 in 6.2 mi NW 15.0 mph - N/A   Mostly Cloudy
10:50 AM 33.8 °F 23.5 °F 26.6 °F 75% 30.01 in 6.2 mi WNW 16.1 mph - N/A   Mostly Cloudy
11:20 AM 33.8 °F 23.5 °F 24.8 °F 70% 30.01 in 6.2 mi WNW 16.1 mph - N/A   Mostly Cloudy
11:50 AM 35.6 °F 25.9 °F 24.8 °F 65% 30.01 in 6.2 mi NW 16.1 mph - N/A   Mostly Cloudy
12:20 PM 35.6 °F 26.2 °F 23.0 °F 60% 30.01 in 6.2 mi NW 15.0 mph - N/A   Mostly Cloudy
12:50 PM 35.6 °F 26.2 °F 24.8 °F 65% 30.01 in 6.2 mi NW 15.0 mph - N/A   Mostly Cloudy
1:00 PM 36 °F - 24 °F 50% 30.05 in 9 mi NW 15.7 mph - -   Partly Cloudy
1:20 PM 33.8 °F 22.5 °F 24.8 °F 70% 30.04 in 1.1 mi NW 19.6 mph - N/A Snow Snow Showers
1:50 PM 33.8 °F 27.0 °F 28.4 °F 81% 30.01 in 6.2 mi West 8.1 mph - N/A   Scattered Clouds
2:20 PM 35.6 °F 28.6 °F 28.4 °F 75% 30.01 in 6.2 mi West 9.2 mph - N/A Snow Light Snow Showers
2:50 PM 35.6 °F 26.2 °F 23.0 °F 60% 30.01 in 6.2 mi NW 15.0 mph - N/A   Mostly Cloudy
3:20 PM 35.6 °F 27.1 °F 26.6 °F 70% 30.01 in 6.2 mi WNW 12.7 mph - N/A   Mostly Cloudy
3:50 PM 33.8 °F 24.8 °F 24.8 °F 70% 30.04 in 6.2 mi NW 12.7 mph - N/A   Scattered Clouds
4:00 PM 33 °F - 25 °F 62% 30.07 in 12 mi NW 13.4 mph - -   Partly Cloudy
4:20 PM 33.8 °F 27.0 °F 23.0 °F 65% 30.04 in 6.2 mi NW 8.1 mph - N/A   Partly Cloudy
4:50 PM 33.8 °F 24.8 °F 23.0 °F 65% 30.04 in 6.2 mi NW 12.7 mph - N/A   Scattered Clouds
5:20 PM 33.8 °F 25.3 °F 23.0 °F 65% 30.04 in 6.2 mi NW 11.5 mph - N/A   Mostly Cloudy
5:50 PM 32.0 °F 23.0 °F 23.0 °F 69% 30.04 in 6.2 mi NW 11.5 mph - N/A   Mostly Cloudy
6:20 PM 32.0 °F 22.5 °F 21.2 °F 64% 30.06 in 6.2 mi NW 12.7 mph - N/A   Mostly Cloudy
6:50 PM 32.0 °F 23.0 °F 21.2 °F 64% 30.06 in 6.2 mi NW 11.5 mph - N/A   Scattered Clouds
7:00 PM 31 °F - 22 °F 58% 30.11 in 31 mi NW 11.2 mph - -   Partly Cloudy
7:20 PM 32.0 °F 23.0 °F 21.2 °F 64% 30.06 in 6.2 mi NW 11.5 mph - N/A   Scattered Clouds
7:50 PM 30.2 °F 20.8 °F 21.2 °F 69% 30.06 in 6.2 mi NW 11.5 mph - N/A   Partly Cloudy
8:20 PM 30.2 °F 20.2 °F 21.2 °F 69% 30.06 in 6.2 mi NW 12.7 mph - N/A   Partly Cloudy
8:50 PM 30.2 °F 21.3 °F 21.2 °F 69% 30.09 in - NW 10.4 mph - N/A   Clear
9:20 PM 30.2 °F 22.6 °F 21.2 °F 69% 30.09 in - NW 8.1 mph - N/A   Clear
9:50 PM 30.2 °F 21.9 °F 21.2 °F 69% 30.09 in - NW 9.2 mph - N/A   Clear
10:00 PM 30 °F - 21 °F 59% 30.14 in 31 mi NW 8.9 mph - -   Scattered Clouds
10:20 PM 28.4 °F 19.7 °F 21.2 °F 74% 30.09 in - NW 9.2 mph - N/A   Clear
10:50 PM 28.4 °F 21.2 °F 21.2 °F 74% 30.09 in - NW 6.9 mph - N/A   Clear
11:20 PM 28.4 °F 20.4 °F 21.2 °F 74% 30.09 in - WNW 8.1 mph - N/A   Clear
11:50 PM 28.4 °F 21.2 °F 21.2 °F 74% 30.09 in 6.2 mi NW 6.9 mph - N/A   Partly Cloudy